Meteo Giornale » Osservazioni meteo Francia » Troyes
ore: 20:00 - Osservazioni Meteo Troyes
Lat. 48° 20' N Lon. 4° 1' E Alt. 118 metri s.l.m.
24 °C
Sereno
Temp. 24 Ore
15 °C
26 °C
Nord
5.5 Km/h
Dew point 11 °C
Umidità 43 %
Visibilità 10 Km
Il sole sorge alle ore 07:01
Il sole tramonta alle ore 20:26
| Data e Ora | Cielo e Fenomeni | T °C | DP °C | Um. % | Pres. hPa | Vis. km | Vento km/h | |
|---|---|---|---|---|---|---|---|---|
| Oggi h: 20:00 | Sereno | 24 | 11 | 43 | 1020 | 10 | N 5.5 | |
| Oggi h: 19:30 | Sereno | 24 | 11 | 43 | 1020 | 10 | N 3.7 | |
| Oggi h: 19:00 | Sereno | 25 | 12 | 44 | 1020 | 10 | N 5.5 | |
| Oggi h: 18:30 | Sereno | 25 | 12 | 44 | 1020 | 10 | N 5.5 | |
| Oggi h: 18:00 | Sereno | 26 | 12 | 41 | 1020 | 10 | O/NO 11.1 | |
| Oggi h: 17:30 | Sereno | 25 | 12 | 44 | 1021 | 10 | N/NO 7.4 | |
| Oggi h: 17:00 | Sereno | 25 | 12 | 44 | 1021 | 10 | NO 7.4 | |
| Oggi h: 16:30 | Sereno | 25 | 13 | 47 | 1021 | 10 | N 9.3 | |
| Oggi h: 16:00 | Sereno | 25 | 12 | 44 | 1021 | 10 | NO 14.8 | |
| Oggi h: 15:30 | Sereno | 25 | 11 | 41 | 1021 | 10 | N 9.3 | |
| Oggi h: 15:00 | Sereno | 25 | 12 | 44 | 1021 | 10 | NO 14.8 | |
| Oggi h: 14:30 | Poco Nuvoloso | 25 | 13 | 47 | 1022 | 10 | O/NO 11.1 | |
| Oggi h: 14:00 | Nuvoloso | 24 | 13 | 50 | 1022 | 10 | O/NO 7.4 | |
| Oggi h: 13:30 | Molto Nuvoloso | 23 | 13 | 53 | 1022 | 10 | N/NO 9.3 | |
| Oggi h: 13:00 | Molto Nuvoloso | 22 | 14 | 60 | 1022 | 10 | N 7.4 | |
| Oggi h: 12:30 | Sereno | 23 | 14 | 56 | 1022 | 10 | N/NO 7.4 | |
| Oggi h: 12:00 | Sereno | 22 | 14 | 60 | 1022 | 10 | N 5.5 | |
| Oggi h: 11:30 | Poco Nuvoloso | 21 | 15 | 68 | 1022 | 10 | N 5.5 | |
| Oggi h: 11:00 | Nuvoloso | 21 | 14 | 64 | 1022 | 10 | N/NO 7.4 | |
| Oggi h: 10:30 | Sereno | 19 | 14 | 72 | 1023 | 10 | N/NO 9.3 | |
| Oggi h: 10:00 | Sereno | 19 | 14 | 72 | 1022 | 10 | N 5.5 | |
| Oggi h: 09:30 | Sereno | 18 | 14 | 77 | 1022 | 10 | N 5.5 | |
| Oggi h: 09:00 | Nuvoloso | 17 | 14 | 82 | 1022 | 10 | N 0 | |
| Oggi h: 08:30 | Molto Nuvoloso | 15 | 14 | 93 | 1022 | 10 | N 0 | |
| Oggi h: 08:00 | Coperto | 15 | 14 | 93 | 1022 | 10 | N 3.7 | |



